THOR ABLESTAR DEB, 357

Orbit data source: Space-Track

THOR ABLESTAR DEB, 357 is space debris in LEO originally from a launch on Thu, 29 Jun 1961 UTC launched from the Air Force Eastern Test Range (AFETR). Debris objects in space refer to the collection of defunct objects orbiting the Earth. Examples of debris include non-operational satellites, rocket bodies, and fragments generated from explosions, collisions, or faulty payload assembly.

Loading next visibility...
Identifier
357, 1961-015DX
Orbit
LEO
Country
Flag of USUS
Related business
Manufacturer
Unknown
Mission
Spacecraft
Bus & Motor
Unknown
Mass
Unknown
Launch date (UTC)
1961-06-29 (64 years ago)
Launch vehicle
Unknown
Launch site
Air Force Eastern Test Range (AFETR)
Object type
Payload
Rocket body
Debris
Shape & HBR
Unknown shape, 0.1 m
Radar Cross Section
Small (<0.1 m²)

Expand to show TLE details & history
Last TLE update: 6 hours ago

TLE from 6 hours ago
0 THOR ABLESTAR DEB
1 00357U 61015DX  25295.90254509  .00001613  00000-0  97688-3 0  9997
2 00357  66.8062 123.4144 0010357 333.7561  26.3001 14.08944241262423
Epoch: 2025-10-22T21:39Z
TLE epoch observation values (Epoch: 2025-10-22T21:39:39.895Z)
Latitude
-0.00004°
Longitude
126.92867°
Altitude
858.359 km
Speed
7.427 km/s
True Right ascension
08h 13m 39s
True Declination
0° 00' 00"
Sunlit
Object was in daylight at epoch
Visualization orbit readout
Latitude
Unknown
Longitude
Unknown
Altitude
Unknown
Speed
Unknown
Apparent Right ascension
Unknown
Apparent Declination
Unknown
Sunlit
N/A
Visualization observer readout
Local Sidereal Time
23:15:01
Azimuth
Unknown
Elevation
Unknown
Doppler factor
Unknown
Orbital elements
Apogee altitude
868.863 km
Perigee altitude
853.868 km
Semi-major axis
7,239.503 km
Eccentricity
0.00104
Inclination
66.8062°
RAAN
123.4144°
Arg. of periapsis
333.7561°
True anomaly
26.35275°
Mean anomaly
26.3001°
Eccentric anomaly
26.32642°
Mean motion
3.52355 °/min
Orbital period
102.17 mins
BSTAR
0.00097688

Documentation

Showing up to 5 results
|